Flag for Peru Weather past 2 weeks in Chiclayo, Lambayeque, Peru

Now
77 °F

Sunny.


Feels Like: 79 °F
Forecast: 64 / 77 °F
Wind: 16 mph from South

Location: Chiclayo Airport

Current Time: Dec 21, 2014 at 1:21:13 PM

Latest Report: Dec 21, 2014 at 1:00 PM


Visibility: 10 mi

Pressure: 29.92 "Hg

Humidity: 57%

Dew point: 61 °F

Location of ChiclayoLocation

Historic Weather in Chiclayo — Graph

°F

Chiclayo temperature yesterday

Maximum temperature yesterday: 77 °F (at 1:00 PM)
Minimum temperature yesterday: 63 °F (at 6:00 AM)
Average temperature yesterday: 69 °F

Past Weeks' High & Low Weather Summary

 TemperatureHumidityPressure
High84 °F (Dec 10, 12:00 PM)100% (Dec 19, 3:00 AM)30.04 "Hg (Dec 19, 3:00 AM)
Low63 °F (Dec 20, 6:00 AM)51% (Dec 10, 12:00 PM)29.77 "Hg (Dec 7, 4:00 PM)
Average71 °F77%29.91 "Hg
* Reported Dec 6 12:00 Noon — Dec 21 12:00 Noon, Chiclayo, Weather by CustomWeather, © 2014

Note: Actual official high and low records may vary slightly from our data, if they occured in-between our weather recording intervals... More about our weather records

Advertising

Chiclayo weather history for previous 24 hours

 ConditionsComfort  
Time TempWeatherWind HumidityBarometerVisibility
12:00 PM
Dec 21
75 °FSunny.17 mph61%29.92 "Hg10 mi
11:00 AM75 °FSunny.13 mph65%29.95 "Hg10 mi
10:00 AM73 °FSunny.14 mph69%29.95 "Hg10 mi
9:00 AM70 °FPassing clouds.14 mph78%29.95 "HgN/A
8:00 AM66 °FScattered clouds.14 mph88%29.95 "HgN/A
7:00 AM64 °FSunny.7 mph94%29.95 "Hg10 mi
6:00 AM64 °FClear.9 mph94%29.92 "Hg10 mi
5:00 AM64 °FClear.10 mph88%29.89 "Hg10 mi
4:00 AM64 °FClear.8 mph88%29.89 "Hg10 mi
3:00 AM64 °FClear.7 mph88%29.89 "Hg10 mi
2:00 AM64 °FClear.7 mph88%29.89 "Hg10 mi
1:00 AM66 °FClear.8 mph88%29.92 "Hg10 mi
12:00 AM66 °FClear.7 mph88%29.95 "Hg10 mi
11:00 PM
Dec 20
66 °FClear.9 mph94%29.95 "Hg10 mi
10:00 PM68 °FClear.9 mph88%29.95 "Hg10 mi
9:00 PM68 °FClear.12 mph88%29.95 "Hg10 mi
8:00 PM68 °FClear.14 mph83%29.92 "Hg10 mi
7:00 PM70 °FClear.15 mph78%29.89 "Hg10 mi
6:00 PM72 °FSunny.18 mph69%29.83 "Hg10 mi
5:00 PM75 °FSunny.20 mph61%29.83 "Hg10 mi
4:00 PM75 °FSunny.23 mph61%29.83 "Hg10 mi
3:00 PM77 °FSunny.18 mph57%29.83 "Hg10 mi
2:00 PM77 °FSunny.16 mph61%29.86 "Hg10 mi
1:00 PM77 °FPassing clouds.14 mph57%29.86 "HgN/A
Weather by CustomWeather, © 2014

See weather overviewHow to use our weather pages